DECAYED

PSLV R/B, 44104 (Decayed)

Orbit data source: Space-Track

PSLV R/B, 44104 was space debris in LEO originally from a launch on Mon, 01 Apr 2019 UTC via a PSLV-QL launch vehicle from the Sirharikota (SRI). Debris objects in space refer to the collection of defunct objects orbiting the Earth. Examples of debris include non-operational satellites, rocket bodies, and fragments generated from explosions, collisions, or faulty payload assembly.

Loading next visibility...
Identifier
44104, 2019-018AC
Orbit
Decayed
Last TLE update
10 months ago
Origin
Manufacturer
ISRO SAC/Banga
Mission
Decayed Civil Technology
Bus & Motor
PS-4 OP, Unknown motor
Mass
~20 kg wet, ~20 kg dry
Launch date (UTC)
2019-04-01 (6 years ago)
Launch vehicle
PSLV-QL
Launch site
Sirharikota (SRI)
Object type
Payload
Rocket body
Debris
Shape & HBR
Box + Box, 0.3 m
Radar Cross Section
0.075 m², Large (>1 m²)

Expand to show TLE details & history

TLE from 10 months ago
0 PSLV R/B
1 44104U 19018AC  24182.30226727  .75017961  27951-5  13042-3 0  9996
2 44104  97.3313 295.7289 0014430 174.9294 243.0071 16.64608738295003
Epoch: 2024-06-30T07:15Z
Definitive object data (Epoch: 2024-06-30T07:15:15.892Z)
Latitude
57.16302°
Longitude
-103.37182°
Altitude
115.088 km
Speed
7.84 km/s
True Right ascension
18h 57m 11s
True Declination
56° 59' 26"
Sunlit
Object was in daylight at TLE epoch
Visualization observer readout
Visualization observer readout
Orbital elements
Apogee altitude
107.265 km
Perigee altitude
88.575 km
Semi-major axis
6,476.057 km
Eccentricity
0.001443
Inclination
97.3313°
RAAN
295.7289°
Arg. of periapsis
174.9294°
True anomaly
242.85988°
Mean anomaly
243.0071°
Eccentric anomaly
242.93348°
Mean motion
4.16464 °/min
BSTAR
0.00013042
Orbital period
86.44 mins
Loading maneuver chart data...
Loading SW <> Apogee altitude chart data...

PSLV R/B Visibility forecast

Observer location: undefined°, undefined°

Span
Click to sort rows by Start time (UTC) header in descending order
Start Az.
Max El. time (UTC)
Max El. Az.
Max El.
End time (UTC)
End Az.
5 mins2025-05-09 18:59:01.313Z263.243° W2025-05-09 19:04:01.313Z359.719° N36.281°2025-05-09 19:04:01.313Z359.719° N
8 mins2025-05-09 20:01:01.313Z284.937° WNW2025-05-09 20:09:01.313Z3.256° NNE36.043°2025-05-09 20:09:01.313Z3.256° NNE
8 mins2025-05-09 21:03:01.313Z301.802° NW2025-05-09 21:11:01.313Z9.472° NNE36.397°2025-05-09 21:11:01.313Z9.472° NNE
11 mins2025-05-09 22:05:01.313Z314.982° NW2025-05-09 22:07:01.313Z21.895° NNE37.491°2025-05-09 22:16:01.313Z11.279° NNE
8 mins2025-05-09 23:10:01.313Z323.363° NNW2025-05-09 23:12:01.313Z22.691° NE39.043°2025-05-09 23:18:01.313Z15.048° NNE
5 mins2025-05-10 00:15:01.313Z330.743° NNW2025-05-10 00:17:01.313Z20.896° NNE40.493°2025-05-10 00:20:01.313Z16.787° NNE
5 mins2025-05-10 01:20:01.313Z337.424° NNW2025-05-10 01:22:01.313Z15.367° NNE41.638°2025-05-10 01:25:01.313Z11.435° NNE
5 mins2025-05-10 08:55:01.313Z22.873° NE2025-05-10 08:57:01.313Z327.943° NNW34.003°2025-05-10 09:00:01.313Z331.147° NNW
5 mins2025-05-10 10:03:01.313Z35.18° NE2025-05-10 10:05:01.313Z334.667° NNW30.879°2025-05-10 10:08:01.313Z337.742° N
|